Change the Weather History Date:

Monday, April 29, 2013

  Actual Average Record
Temperature  
Mean Temperature 85 °F -  
Max Temperature 94 °F - - ()
Min Temperature 76 °F - - ()
Cooling Degree Days 20    
Growing Degree Days 35 (Base 50)    
Moisture  
Dew Point 77 °F    
Average Humidity 80    
Maximum Humidity 97    
Minimum Humidity 51    
Precipitation  
Precipitation 0.03 in - - ()
Sea Level Pressure  
Sea Level Pressure 29.78 in    
Wind  
Wind Speed 2 mph ()    
Max Wind Speed 9 mph    
Max Gust Speed -    
Visibility 4.8 miles    
Events Rain , Thunderstorm    
T = Trace of Precipitation, MM = Missing Value Source: Averaged Metar Reports

Daily Weather History Graph

Daily Weather History Graph

Search for Another Location

Airport or City:

Trip Planner

Search our weather history database for the weather conditions in past years. The results will help you decide how hot, cold, wet, or windy it might be!

Date:

Astronomy

Apr. 29, 2013 Rise Set
Actual Time 5:36 AM WIB 5:43 PM WIB
Civil Twilight 5:15 AM WIB 6:04 PM WIB
Nautical Twilight 4:50 AM WIB 6:29 PM WIB
Astronomical Twilight 4:25 AM WIB 6:54 PM WIB
Moon 9:16 PM WIB 8:45 AM WIB
Length of Visible Light 12h 49m
Length of Day
12h 06m
Waning Gibbous, 84% of the Moon is Illuminated
Apr 29
Waning Gibbous
May 2
Last Quarter
May 10
New
May 18
First Quarter
May 25
Full

Hourly Weather History & Observations

Time (WIB) Temp. Heat Index Dew Point Humidity Pressure Visibility Wind Dir Wind Speed Gust Speed Precip Events Conditions
1:00 AM 78 °F - 77 °F 94% 29.81 in 4 mi Calm Calm - -   Partly Cloudy
4:00 AM 77 °F - 76 °F 97% 29.79 in 4 mi Calm Calm - -   Partly Cloudy
5:30 AM 77.0 °F - 75.2 °F 94% 29.77 in 5.0 mi Calm Calm - N/A   Partly Cloudy
6:00 AM 77.0 °F - 75.2 °F 94% 29.80 in 1.2 mi Calm Calm - N/A   Haze
7:00 AM 78 °F - 76 °F 91% 29.81 in 4 mi Calm Calm - -   Scattered Clouds
7:00 AM 77.0 °F - 75.2 °F 94% 29.80 in 4.3 mi Calm Calm - N/A   Partly Cloudy
7:30 AM 78.8 °F - 75.2 °F 89% 29.80 in 6.2 mi Calm Calm - N/A   Partly Cloudy
8:00 AM 82.4 °F 92.4 °F 78.8 °F 89% 29.83 in 6.2 mi East 3.5 mph - N/A   Partly Cloudy
9:00 AM 86.0 °F 99.3 °F 78.8 °F 79% 29.83 in 6.2 mi NE 3.5 mph - N/A   Scattered Clouds
9:30 AM 87.8 °F 102.5 °F 78.8 °F 75% 29.83 in 6.2 mi NE 5.8 mph - N/A   Scattered Clouds
10:00 AM 89 °F - 78 °F 64% 29.84 in 6 mi East 9.2 mph - -   Mostly Cloudy
10:00 AM 87.8 °F 102.5 °F 78.8 °F 75% 29.83 in 6.2 mi East 9.2 mph - N/A   Mostly Cloudy
11:00 AM 91.4 °F 107.2 °F 78.8 °F 66% - 6.2 mi Calm Calm - N/A   Mostly Cloudy
11:30 AM 91.4 °F 107.2 °F 78.8 °F 66% 29.80 in 6.2 mi NE 3.5 mph - N/A   Mostly Cloudy
12:00 PM 91.4 °F 105.1 °F 77.0 °F 63% 29.77 in 6.2 mi Calm Calm - N/A   Mostly Cloudy
12:30 PM 91.4 °F 105.1 °F 77.0 °F 63% 29.74 in 6.2 mi East 3.5 mph - N/A   Mostly Cloudy
1:00 PM 93 °F - 77 °F 51% 29.76 in 6 mi ESE 5.8 mph - -   Mostly Cloudy
1:30 PM 93.2 °F 107.2 °F 77.0 °F 59% 29.71 in 6.2 mi South 3.5 mph - N/A   Mostly Cloudy
2:00 PM 93.2 °F 107.2 °F 77.0 °F 59% 29.71 in 6.2 mi NNE 5.8 mph - N/A   Mostly Cloudy
2:30 PM 93.2 °F 105.0 °F 75.2 °F 56% 29.71 in 6.2 mi South 3.5 mph - N/A   Mostly Cloudy
3:00 PM 93.2 °F 105.0 °F 75.2 °F 56% 29.71 in 6.2 mi SW 3.5 mph - N/A   Mostly Cloudy
4:00 PM 84 °F - 77 °F 74% 29.75 in 3 mi North 6.9 mph - - Rain , Thunderstorm Thunderstorms and Rain
4:00 PM 84.2 °F 94.1 °F 77.0 °F 79% 29.74 in 3.1 mi North 6.9 mph - N/A Rain , Thunderstorm Light Thunderstorms and Rain
4:30 PM 84.2 °F 94.1 °F 77.0 °F 79% 29.74 in 5.0 mi North 4.6 mph - N/A Thunderstorm Thunderstorm
5:30 PM 80.6 °F 87.1 °F 77.0 °F 89% 29.77 in 4.3 mi North 3.5 mph - N/A Thunderstorm Thunderstorm
6:00 PM 78.8 °F - 75.2 °F 89% 29.77 in 3.7 mi Calm Calm - N/A Thunderstorm Thunderstorm
6:30 PM 78.8 °F - 75.2 °F 89% 29.80 in 3.7 mi Calm Calm - N/A   Mostly Cloudy
7:00 PM 79 °F - 76 °F 89% 29.80 in 4 mi SE 3.5 mph - - Rain Light Rain
7:00 PM 78.8 °F - 77.0 °F 94% 29.80 in 3.7 mi SE 3.5 mph - N/A Rain Rain
8:30 PM 78.8 °F - 77.0 °F 94% 29.77 in 3.7 mi Calm Calm - N/A   Mostly Cloudy
9:00 PM 78.8 °F - 77.0 °F 94% 29.77 in 3.7 mi Calm Calm - N/A   Mostly Cloudy
9:30 PM 78.8 °F - 77.0 °F 94% 29.80 in 3.7 mi Calm Calm - N/A   Mostly Cloudy
10:00 PM 79 °F - 76 °F 89% 29.82 in 4 mi Calm Calm - -   Partly Cloudy
10:00 PM 78.8 °F - 77.0 °F 94% - 3.7 mi Calm Calm - N/A   Mostly Cloudy